Location: Dötzum
(52.0808°N, 9.8063°E)
Time: 05:56:31
(UTC+00:00)

Cosmos 407 Rocket - Pass Details

Date: 27 May 2022
Orbit: 743 x 786 km, 74.0° (Epoch: 26 June)

Event Time Altitude Azimuth Distance (km) Brightness Sun altitude
Rises 02:05:31 0° 334° (NNW) 3,287 7.1 -8.0°
Reaches altitude 10° 02:07:55 10° 333° (NNW) 2,351 6.4 -7.8°
Maximum altitude 02:13:17 82° 247° (WSW) 792 3.5 -7.3°
Drops below altitude 10° 02:18:32 10° 161° (SSE) 2,310 5.7 -6.8°
Sets 02:20:53 0° 160° (SSE) 3,226 6.5 -6.5°
